Flag for Norway Weather past 2 weeks in Farsund, Norway

Now
35 °F

Chilly.


Feels Like: 31 °F
Forecast: 38 / 41 °F
Wind: 5 mph from East

Location: Lista Fyr

Current Time: Mar 31, 2015 at 3:09:40 AM

Latest Report: Mar 31, 2015 at 2:00 AM


Visibility: N/A

Pressure: 29.12 "Hg

Humidity: 90%

Dew point: 32 °F

Location of FarsundLocation

Historic Weather in Farsund — Graph

°F

Farsund temperature yesterday

Maximum temperature yesterday: 42 °F (at 4:00 PM)
Minimum temperature yesterday: 38 °F (at 10:00 PM)
Average temperature yesterday: 40 °F

Past Weeks' High & Low Weather Summary

 TemperatureHumidityPressure
High53 °F (Mar 18, 2:00 PM)99% (Mar 20, 7:00 PM)30.68 "Hg (Mar 20, 7:00 PM)
Low30 °F (Mar 22, 2:00 AM)28% (Mar 21, 3:00 PM)28.97 "Hg (Mar 30, 12:00 AM)
Average41 °F82%30.01 "Hg
* Reported Midnight between Mar 15 and Mar 16 — Mar 31 1:00 AM, Farsund, Weather by CustomWeather, © 2015

Note: Actual official high and low records may vary slightly from our data, if they occured in-between our weather recording intervals... More about our weather records

Advertising

Farsund weather history for previous 24 hours

 ConditionsComfort  
Time TempWeatherWind HumidityBarometerVisibility
1:00 AM
Tue, Mar 31
37 °FChilly.7 mph88%29.18 "HgN/A
12:00 AM37 °FChilly.2 mph87%29.23 "HgN/A
11:00 PM
Mon, Mar 30
39 °FChilly.5 mph85%29.26 "HgN/A
10:00 PM38 °FChilly.8 mph85%29.29 "HgN/A
9:00 PM40 °FQuite cool.10 mph83%29.29 "HgN/A
8:00 PM41 °FQuite cool.12 mph82%29.29 "HgN/A
7:00 PM41 °FQuite cool.15 mph78%29.29 "HgN/A
6:00 PM42 °FQuite cool.14 mph77%29.29 "HgN/A
5:00 PM42 °FQuite cool.14 mph76%29.26 "HgN/A
4:00 PM42 °FQuite cool.14 mph77%29.23 "HgN/A
3:00 PM42 °FQuite cool.12 mph82%29.23 "HgN/A
2:00 PM42 °FPassing clouds.13 mph82%29.21 "Hg19 mi
1:00 PM42 °FQuite cool.12 mph79%29.18 "HgN/A
12:00 PM42 °FQuite cool.10 mph80%29.15 "HgN/A
11:00 AM41 °FQuite cool.7 mph83%29.12 "HgN/A
10:00 AM41 °FQuite cool.8 mph84%29.09 "HgN/A
9:00 AM39 °FChilly.6 mph86%29.09 "HgN/A
8:00 AM39 °FPassing clouds.6 mph91%29.06 "Hg12 mi
7:00 AM39 °FChilly.7 mph93%29.03 "HgN/A
6:00 AM39 °FChilly.7 mph92%29.00 "HgN/A
5:00 AM39 °FChilly.8 mph89%29.00 "HgN/A
4:00 AM39 °FChilly.8 mph89%29.00 "HgN/A
3:00 AM40 °FChilly.7 mph92%29.00 "HgN/A
Weather by CustomWeather, © 2015

See weather overviewHow to use our weather pages